"Pseudo-MPEC" for P12gYUz

Created 2025 Nov 9 8:35:06 UT using Find_Orb

Click here for an explanation of pseudo-MPECs

 
 Astrometry: 
     P12gYUz* C2025 11 02.57342104 13 15.316+33 18 37.48   ~B2Go 21.36wXNEOCPF51
     P12gYUz  C2025 11 02.58408604 13 15.358+33 17 39.94   ~B2Go 21.44wXNEOCPF51
     P12gYUz  C2025 11 02.59469804 13 15.369+33 16 43.33   ~B2Go 21.35wXNEOCPF51
     P12gYUz KC2025 11 03.30018904 13 37.04 +32 15 17.2    ~B385 22.2 GVNEOCPH21
     P12gYUz KC2025 11 03.31235004 13 37.01 +32 14 14.8    ~B385 21.6 GVNEOCPH21
     P12gYUz KC2025 11 03.31523804 13 37.02 +32 13 59.9    ~B385 21.3 GVNEOCPH21
     P12gYUz KC2025 11 03.31803004 13 37.04 +32 13 45.3    ~B385 21.5 GVNEOCPH21

Station data:
(F51) Pan-STARRS 1, Haleakala  (N20.707234 W156.255910)  US/Hawaii.
   Observers J. Herman, T. Lowe, P. Minguez, A. Schultz, I. Smith. Measurers
   K. Chambers, T. de Boer, J. Fairlamb, H. Gao, M. Huber, C.-C. Lin, E.
   Magnier, Y. Ramanjooloo, R. Wainscoat, R. Weryk. 1.8-m Ritchey-Chrétien +
   CCD.
(H21) Astronomical Research Observatory, Westfield  (N39.483054 W87.968270)
   US/Illinois.  Observer R. Holmes. Measurers S. Foglia, L. Buzzi, T.
   Linder, R. Holmes. 0.40-m f/5.32 astrograph + CCD.

Orbital elements:  P12gYUz
   Perihelion 2025 Sep 23.955554 +/- 0.472 TT = 22:55:59.8 (JD 2460942.455554)
Epoch 2025 Nov  3.0 TT = JDT 2460982.5   Earth MOID: 0.0993      AutoNEOCP
M  19.706054514 +/- 1.6             (J2000 ecliptic)
n   0.492104557 +/- 0.0477          Peri.  130.420128 +/- 1.8
a   1.588904485 +/- 0.103           Node   231.776412 +/- 0.37
e   0.34507562 +/- 0.0485           Incl.    9.376342 +/- 0.48
P   2.003/731.538d         H 24.60  G  0.15   U 10.7
q 1.040612273 +/- 0.0113    Q 2.137196697 +/- 0.215
From 7 observations 2025 Nov. 2-3 (17.9 hr); mean residual 0".15
Residuals in arcseconds: 
251102 F51  .08-  .10+    251103 H21  .07+  .23-    251103 H21  .21+  .03-    
251102 F51  .18+  .25-    251103 H21  .21-  .12+    
251102 F51  .10-  .15+    251103 H21  .06-  .14+    

Ephemerides (geocentric):
Date (UTC) HH   RA             Dec           delta  r     elong  mag " sig PA
---- --------  ------------   ------------  ------ ------ -----  --- --------
2025 11 09 09  04 14 37.740   +24 17 55.02  .15058 1.1336 160.5 21.7 94.6   7
2025 11 09 10  04 14 37.658   +24 14 57.66  .15071 1.1337 160.6 21.7 95.7   7
2025 11 09 11  04 14 37.571   +24 12 00.57  .15083 1.1339 160.6 21.7 96.8   7
2025 11 09 12  04 14 37.479   +24 09 03.74  .15096 1.1341 160.7 21.7 97.9   7
2025 11 09 13  04 14 37.381   +24 06 07.18  .15108 1.1342 160.8 21.7   99   7
2025 11 09 14  04 14 37.278   +24 03 10.89  .15121 1.1344 160.8 21.7  100   7
2025 11 09 15  04 14 37.169   +24 00 14.87  .15133 1.1345 160.9 21.7  101   7
2025 11 09 16  04 14 37.055   +23 57 19.11  .15146 1.1347 160.9 21.7  102   7
2025 11 09 17  04 14 36.936   +23 54 23.62  .15158 1.1348 161.0 21.7  104   7
2025 11 09 18  04 14 36.811   +23 51 28.39  .15171 1.1350 161.0 21.7  105   7
2025 11 09 19  04 14 36.681   +23 48 33.44  .15184 1.1351 161.1 21.7  106   7
2025 11 09 20  04 14 36.546   +23 45 38.75  .15196 1.1353 161.1 21.7  107   7
2025 11 09 21  04 14 36.406   +23 42 44.33  .15209 1.1354 161.2 21.7  108   7
2025 11 09 22  04 14 36.260   +23 39 50.17  .15222 1.1356 161.3 21.7  109   7
2025 11 09 23  04 14 36.110   +23 36 56.28  .15234 1.1357 161.3 21.7  110   7
2025 11 10 00  04 14 35.954   +23 34 02.66  .15247 1.1359 161.4 21.7  112   7
2025 11 10 01  04 14 35.793   +23 31 09.31  .15260 1.1361 161.4 21.7  113   7
2025 11 10 02  04 14 35.627   +23 28 16.22  .15273 1.1362 161.5 21.7  114   7
2025 11 10 03  04 14 35.455   +23 25 23.41  .15286 1.1364 161.5 21.7  115   7
2025 11 10 04  04 14 35.279   +23 22 30.86  .15298 1.1365 161.6 21.7  116   7
2025 11 10 05  04 14 35.098   +23 19 38.57  .15311 1.1367 161.7 21.7  118   7
2025 11 10 06  04 14 34.912   +23 16 46.56  .15324 1.1368 161.7 21.7  119   7
2025 11 10 07  04 14 34.720   +23 13 54.81  .15337 1.1370 161.8 21.7  120   7
2025 11 10 08  04 14 34.524   +23 11 03.33  .15350 1.1371 161.8 21.7  121   7
2025 11 10 09  04 14 34.323   +23 08 12.11  .15363 1.1373 161.9 21.7  122   7
2025 11 10 10  04 14 34.117   +23 05 21.17  .15376 1.1375 161.9 21.7  123   7
2025 11 10 11  04 14 33.906   +23 02 30.49  .15389 1.1376 162.0 21.7  125   7
2025 11 10 12  04 14 33.690   +22 59 40.08  .15402 1.1378 162.0 21.7  126   7
2025 11 10 13  04 14 33.469   +22 56 49.93  .15415 1.1379 162.1 21.7  127   7
2025 11 10 14  04 14 33.244   +22 54 00.05  .15428 1.1381 162.2 21.7  128   7
2025 11 10 15  04 14 33.013   +22 51 10.45  .15441 1.1382 162.2 21.7  130   7
2025 11 10 16  04 14 32.778   +22 48 21.10  .15454 1.1384 162.3 21.7  131   7
2025 11 10 17  04 14 32.538   +22 45 32.03  .15467 1.1385 162.3 21.7  132   7
2025 11 10 18  04 14 32.294   +22 42 43.22  .15480 1.1387 162.4 21.7  133   7
2025 11 10 19  04 14 32.044   +22 39 54.68  .15494 1.1389 162.4 21.7  134   7
2025 11 10 20  04 14 31.790   +22 37 06.41  .15507 1.1390 162.5 21.7  136   7
2025 11 10 21  04 14 31.532   +22 34 18.41  .15520 1.1392 162.5 21.7  137   7
2025 11 10 22  04 14 31.269   +22 31 30.67  .15533 1.1393 162.6 21.7  138   7
2025 11 10 23  04 14 31.001   +22 28 43.20  .15547 1.1395 162.6 21.7  139   7
2025 11 11 00  04 14 30.728   +22 25 56.00  .15560 1.1396 162.7 21.7  141   7
2025 11 11 01  04 14 30.451   +22 23 09.06  .15573 1.1398 162.8 21.7  142   7
2025 11 11 02  04 14 30.170   +22 20 22.39  .15586 1.1400 162.8 21.7  143   7
2025 11 11 03  04 14 29.884   +22 17 35.99  .15600 1.1401 162.9 21.7  144   7
2025 11 11 04  04 14 29.593   +22 14 49.86  .15613 1.1403 162.9 21.7  146   7
2025 11 11 05  04 14 29.298   +22 12 03.99  .15626 1.1404 163.0 21.7  147   7
2025 11 11 06  04 14 28.999   +22 09 18.39  .15640 1.1406 163.0 21.7  148   7
2025 11 11 07  04 14 28.695   +22 06 33.06  .15653 1.1407 163.1 21.7  150   7
2025 11 11 08  04 14 28.387   +22 03 48.00  .15667 1.1409 163.1 21.7  151   7